Location: Wien
(48.2082°N, 16.3738°E)
Time: 11:46:23
(UTC+01:00)

Envisat - Pass Details

Date: 26 October 2019
Orbit: 764 x 766 km, 98.1° (Epoch: 14 November)

Event Time Altitude Azimuth Distance (km) Brightness Sun altitude
Rises 19:06:45 0° 174° (S) 3,220 6.2 -14.0°
Reaches altitude 10° 19:09:05 10° 177° (S) 2,298 5.5 -14.4°
Maximum altitude 19:14:06 63° 259° (WSW) 857 3.5 -15.2°
Drops below altitude 10° 19:19:09 10° 340° (NNW) 2,314 5.7 -16.0°
Sets 19:21:30 0° 344° (NNW) 3,244 6.5 -16.4°
